Time,TemperatureF,DewpointF,PressureIn,WindDirection,WindDirectionDegrees,WindSpeedMPH,WindSpeedGustMPH,Humidity,HourlyPrecipIn,Conditions,Clouds,dailyrainin,SolarRadiationWatts/m^2,SoftwareType,DateUTC
2013-04-08 00:11:00,41.0,27.0,29.74,WNW,294,0.0,-999.0,58,-99.99,,,0.00,0,weatherlink.com 1.10,2013-04-08 06:11:00,
2013-04-08 00:26:00,40.6,27.0,29.74,WNW,295,1.0,-999.0,58,-99.99,,,0.00,0,weatherlink.com 1.10,2013-04-08 06:26:00,
2013-04-08 00:41:00,40.2,27.0,29.74,WNW,297,2.0,-999.0,59,-99.99,,,0.00,0,weatherlink.com 1.10,2013-04-08 06:41:00,
2013-04-08 00:56:00,40.1,26.0,29.74,WNW,301,2.0,-999.0,58,-99.99,,,0.00,0,weatherlink.com 1.10,2013-04-08 06:56:00,
2013-04-08 01:10:00,40.2,26.0,29.74,WNW,289,2.0,-999.0,57,-99.99,,,0.00,0,weatherlink.com 1.10,2013-04-08 07:10:00,
2013-04-08 01:25:00,39.9,26.0,29.73,WNW,285,3.0,-999.0,57,-99.99,,,0.00,0,weatherlink.com 1.10,2013-04-08 07:25:00,
2013-04-08 01:40:00,39.5,26.0,29.73,West,279,4.0,-999.0,58,-99.99,,,0.00,0,weatherlink.com 1.10,2013-04-08 07:40:00,
2013-04-08 01:55:00,38.9,25.0,29.73,WNW,290,3.0,-999.0,59,-99.99,,,0.00,0,weatherlink.com 1.10,2013-04-08 07:55:00,
2013-04-08 02:10:00,38.4,24.0,29.71,NW,323,1.0,-999.0,56,-99.99,,,0.00,0,weatherlink.com 1.10,2013-04-08 08:10:00,
2013-04-08 02:25:00,38.2,23.0,29.70,WNW,296,2.0,-999.0,55,-99.99,,,0.00,0,weatherlink.com 1.10,2013-04-08 08:25:00,
2013-04-08 02:40:00,37.7,23.0,29.70,NNW,344,2.0,-999.0,55,-99.99,,,0.00,0,weatherlink.com 1.10,2013-04-08 08:40:00,
2013-04-08 02:55:00,36.6,23.0,29.68,North,360,5.0,-999.0,58,-99.99,,,0.00,0,weatherlink.com 1.10,2013-04-08 08:55:00,
2013-04-08 03:10:00,36.1,23.0,29.68,NNW,339,1.0,-999.0,60,-99.99,,,0.00,0,weatherlink.com 1.10,2013-04-08 09:10:00,
2013-04-08 03:25:00,35.3,23.0,29.69,South,177,1.0,-999.0,62,-99.99,,,0.00,0,weatherlink.com 1.10,2013-04-08 09:25:00,
2013-04-08 03:40:00,33.8,23.0,29.70,South,180,0.0,-999.0,66,-99.99,,,0.00,0,weatherlink.com 1.10,2013-04-08 09:40:00,
2013-04-08 03:55:00,33.5,23.0,29.71,WNW,288,1.0,-999.0,66,-99.99,,,0.00,0,weatherlink.com 1.10,2013-04-08 09:55:00,
2013-04-08 04:10:00,33.0,23.0,29.71,WNW,288,0.0,-999.0,68,-99.99,,,0.00,0,weatherlink.com 1.10,2013-04-08 10:10:00,
2013-04-08 04:25:00,32.9,23.0,29.71,NNW,331,1.0,-999.0,68,-99.99,,,0.00,0,weatherlink.com 1.10,2013-04-08 10:25:00,
2013-04-08 04:40:00,32.1,23.0,29.71,NNE,26,7.0,-999.0,70,-99.99,,,0.00,0,weatherlink.com 1.10,2013-04-08 10:40:00,
2013-04-08 04:55:00,32.6,25.0,29.72,NNE,32,8.0,-999.0,73,-99.99,,,0.00,0,weatherlink.com 1.10,2013-04-08 10:55:00,
2013-04-08 05:10:00,33.9,27.0,29.73,NNE,27,8.0,-999.0,76,-99.99,,,0.00,0,weatherlink.com 1.10,2013-04-08 11:10:00,
2013-04-08 05:25:00,35.9,29.0,29.72,NNE,24,14.0,-999.0,77,-99.99,,,0.00,0,weatherlink.com 1.10,2013-04-08 11:25:00,
2013-04-08 05:40:00,36.2,30.0,29.72,NE,38,19.0,-999.0,77,-99.99,,,0.00,0,weatherlink.com 1.10,2013-04-08 11:40:00,
2013-04-08 05:55:00,36.3,30.0,29.72,NE,36,19.0,-999.0,78,-99.99,,,0.00,0,weatherlink.com 1.10,2013-04-08 11:55:00,
2013-04-08 06:10:00,36.1,30.0,29.73,NE,37,14.0,-999.0,78,-99.99,,,0.00,0,weatherlink.com 1.10,2013-04-08 12:10:00,
2013-04-08 06:25:00,35.9,30.0,29.74,NE,48,16.0,-999.0,78,-99.99,,,0.00,0,weatherlink.com 1.10,2013-04-08 12:25:00,
2013-04-08 06:41:00,35.7,30.0,29.74,NE,36,10.0,-999.0,80,-99.99,,,0.00,0,weatherlink.com 1.10,2013-04-08 12:41:00,
2013-04-08 06:56:00,35.7,30.0,29.74,NNE,30,19.0,-999.0,81,-99.99,,,0.00,5,weatherlink.com 1.10,2013-04-08 12:56:00,
2013-04-08 07:11:00,35.1,30.0,29.75,NNE,32,21.0,-999.0,80,-99.99,,,0.00,16,weatherlink.com 1.10,2013-04-08 13:11:00,
2013-04-08 07:26:00,33.0,27.0,29.76,NNE,28,18.0,-999.0,78,-99.99,,,0.00,21,weatherlink.com 1.10,2013-04-08 13:26:00,
2013-04-08 07:56:00,32.0,26.0,29.77,North,11,15.0,-999.0,77,-99.99,,,0.00,44,weatherlink.com 1.10,2013-04-08 13:56:00,
2013-04-08 08:41:00,32.7,24.0,29.78,NNE,13,13.0,-999.0,70,-99.99,,,0.00,54,weatherlink.com 1.10,2013-04-08 14:41:00,
2013-04-08 08:56:00,32.1,24.0,29.78,North,11,16.0,-999.0,71,-99.99,,,0.00,60,weatherlink.com 1.10,2013-04-08 14:56:00,
2013-04-08 09:11:00,31.1,25.0,29.78,NNE,17,14.0,-999.0,78,-99.99,,,0.00,58,weatherlink.com 1.10,2013-04-08 15:11:00,
2013-04-08 09:26:00,29.5,26.0,29.79,North,5,21.0,-999.0,85,-99.99,,,0.00,72,weatherlink.com 1.10,2013-04-08 15:26:00,
2013-04-08 09:41:00,28.5,25.0,29.80,NNE,32,23.0,-999.0,87,-99.99,,,0.00,74,weatherlink.com 1.10,2013-04-08 15:41:00,
2013-04-08 09:56:00,28.3,25.0,29.80,NNE,21,26.0,-999.0,88,-99.99,,,0.00,86,weatherlink.com 1.10,2013-04-08 15:56:00,
2013-04-08 10:11:00,28.0,25.0,29.81,North,11,12.0,-999.0,89,-99.99,,,0.00,83,weatherlink.com 1.10,2013-04-08 16:11:00,
2013-04-08 10:26:00,27.6,25.0,29.82,North,360,13.0,-999.0,90,-99.99,,,0.00,102,weatherlink.com 1.10,2013-04-08 16:26:00,
2013-04-08 10:41:00,27.2,25.0,29.82,North,355,20.0,-999.0,90,-99.99,,,0.00,132,weatherlink.com 1.10,2013-04-08 16:41:00,
2013-04-08 10:56:00,27.1,25.0,29.83,North,10,18.0,-999.0,90,-99.99,,,0.00,123,weatherlink.com 1.10,2013-04-08 16:56:00,
2013-04-08 11:11:00,27.0,25.0,29.84,North,355,17.0,-999.0,90,-99.99,,,0.00,109,weatherlink.com 1.10,2013-04-08 17:11:00,
2013-04-08 11:27:00,26.9,25.0,29.85,NNE,17,17.0,-999.0,91,-99.99,,,0.00,142,weatherlink.com 1.10,2013-04-08 17:27:00,
2013-04-08 11:57:00,26.0,24.0,29.87,North,360,14.0,-999.0,91,-99.99,,,0.00,134,weatherlink.com 1.10,2013-04-08 17:57:00,
2013-04-08 12:12:00,25.6,23.0,29.88,NNW,348,13.0,-999.0,91,-99.99,,,0.00,160,weatherlink.com 1.10,2013-04-08 18:12:00,
2013-04-08 12:27:00,25.5,24.0,29.89,NNE,13,20.0,-999.0,92,-99.99,,,0.00,174,weatherlink.com 1.10,2013-04-08 18:27:00,
2013-04-08 12:42:00,25.2,23.0,29.90,NNW,335,20.0,-999.0,91,-99.99,,,0.00,160,weatherlink.com 1.10,2013-04-08 18:42:00,
2013-04-08 12:57:00,24.9,23.0,29.91,NE,52,21.0,-999.0,91,-99.99,,,0.00,172,weatherlink.com 1.10,2013-04-08 18:57:00,
2013-04-08 13:12:00,24.5,22.0,29.91,NE,44,20.0,-999.0,91,-99.99,,,0.00,200,weatherlink.com 1.10,2013-04-08 19:12:00,
2013-04-08 13:27:00,24.2,22.0,29.92,NNE,18,23.0,-999.0,91,-99.99,,,0.00,169,weatherlink.com 1.10,2013-04-08 19:27:00,
2013-04-08 13:42:00,23.8,22.0,29.92,NNE,15,26.0,-999.0,91,-99.99,,,0.00,287,weatherlink.com 1.10,2013-04-08 19:42:00,
2013-04-08 13:57:00,24.0,22.0,29.93,NNE,20,18.0,-999.0,91,-99.99,,,0.00,253,weatherlink.com 1.10,2013-04-08 19:57:00,
2013-04-08 14:12:00,23.7,22.0,29.93,NE,36,23.0,-999.0,91,-99.99,,,0.00,260,weatherlink.com 1.10,2013-04-08 20:12:00,
2013-04-08 14:27:00,23.6,21.0,29.95,NNE,26,17.0,-999.0,91,-99.99,,,0.00,229,weatherlink.com 1.10,2013-04-08 20:27:00,
2013-04-08 14:42:00,23.8,22.0,29.95,NNE,13,16.0,-999.0,91,-99.99,,,0.00,267,weatherlink.com 1.10,2013-04-08 20:42:00,
2013-04-08 14:57:00,24.0,22.0,29.96,NNE,15,21.0,-999.0,91,-99.99,,,0.00,309,weatherlink.com 1.10,2013-04-08 20:57:00,
2013-04-08 15:12:00,23.9,22.0,29.97,NNE,19,22.0,-999.0,91,-99.99,,,0.00,366,weatherlink.com 1.10,2013-04-08 21:12:00,
2013-04-08 15:27:00,23.5,21.0,29.98,NNE,24,18.0,-999.0,91,-99.99,,,0.00,308,weatherlink.com 1.10,2013-04-08 21:27:00,
2013-04-08 15:42:00,23.4,21.0,29.98,NNE,15,28.0,-999.0,91,-99.99,,,0.00,406,weatherlink.com 1.10,2013-04-08 21:42:00,
2013-04-08 15:57:00,23.2,21.0,29.99,NNE,18,21.0,-999.0,90,-99.99,,,0.00,311,weatherlink.com 1.10,2013-04-08 21:57:00,
2013-04-08 16:12:00,23.1,21.0,30.00,NNE,30,27.0,-999.0,90,-99.99,,,0.00,292,weatherlink.com 1.10,2013-04-08 22:12:00,
2013-04-08 16:27:00,22.9,20.0,30.01,NE,40,23.0,-999.0,90,-99.99,,,0.00,301,weatherlink.com 1.10,2013-04-08 22:27:00,
2013-04-08 16:42:00,22.8,20.0,30.02,NE,52,26.0,-999.0,89,-99.99,,,0.00,232,weatherlink.com 1.10,2013-04-08 22:42:00,
2013-04-08 16:57:00,22.5,20.0,30.04,NNE,23,27.0,-999.0,88,-99.99,,,0.00,183,weatherlink.com 1.10,2013-04-08 22:57:00,
2013-04-08 17:13:00,22.2,19.0,30.04,North,5,23.0,-999.0,87,-99.99,,,0.00,169,weatherlink.com 1.10,2013-04-08 23:13:00,
2013-04-08 17:28:00,22.0,19.0,30.05,NNE,14,18.0,-999.0,88,-99.99,,,0.00,158,weatherlink.com 1.10,2013-04-08 23:28:00,
2013-04-08 17:43:00,21.8,19.0,30.07,NNE,30,18.0,-999.0,87,-99.99,,,0.00,125,weatherlink.com 1.10,2013-04-08 23:43:00,
2013-04-08 17:58:00,21.4,18.0,30.08,NNE,32,17.0,-999.0,87,-99.99,,,0.00,105,weatherlink.com 1.10,2013-04-08 23:58:00,
2013-04-08 18:13:00,20.7,17.0,30.09,North,350,17.0,-999.0,87,-99.99,,,0.00,77,weatherlink.com 1.10,2013-04-09 00:13:00,
2013-04-08 18:28:00,20.3,17.0,30.11,NNE,27,26.0,-999.0,87,-99.99,,,0.00,70,weatherlink.com 1.10,2013-04-09 00:28:00,
2013-04-08 18:43:00,19.9,17.0,30.12,NNE,16,17.0,-999.0,87,-99.99,,,0.00,54,weatherlink.com 1.10,2013-04-09 00:43:00,
2013-04-08 18:58:00,19.5,16.0,30.13,NNE,28,27.0,-999.0,87,-99.99,,,0.00,33,weatherlink.com 1.10,2013-04-09 00:58:00,
2013-04-08 19:13:00,19.0,16.0,30.14,NNE,27,19.0,-999.0,88,-99.99,,,0.00,19,weatherlink.com 1.10,2013-04-09 01:13:00,
2013-04-08 19:28:00,18.4,16.0,30.15,NNE,22,21.0,-999.0,88,-99.99,,,0.00,11,weatherlink.com 1.10,2013-04-09 01:28:00,
2013-04-08 19:43:00,18.2,15.0,30.16,NNW,346,17.0,-999.0,87,-99.99,,,0.00,0,weatherlink.com 1.10,2013-04-09 01:43:00,
2013-04-08 19:58:00,17.9,15.0,30.17,NE,50,23.0,-999.0,88,-99.99,,,0.00,0,weatherlink.com 1.10,2013-04-09 01:58:00,
2013-04-08 20:13:00,17.5,15.0,30.18,NNE,15,14.0,-999.0,88,-99.99,,,0.00,0,weatherlink.com 1.10,2013-04-09 02:13:00,
2013-04-08 20:28:00,17.3,14.0,30.19,NNW,346,19.0,-999.0,88,-99.99,,,0.00,0,weatherlink.com 1.10,2013-04-09 02:28:00,
2013-04-08 20:43:00,17.2,14.0,30.21,North,5,17.0,-999.0,88,-99.99,,,0.00,0,weatherlink.com 1.10,2013-04-09 02:43:00,
2013-04-08 20:58:00,16.9,14.0,30.22,NNE,22,20.0,-999.0,88,-99.99,,,0.00,0,weatherlink.com 1.10,2013-04-09 02:58:00,
2013-04-08 21:13:00,16.7,14.0,30.23,NNE,30,17.0,-999.0,88,-99.99,,,0.00,0,weatherlink.com 1.10,2013-04-09 03:13:00,
2013-04-08 21:28:00,16.5,14.0,30.24,North,5,21.0,-999.0,89,-99.99,,,0.00,0,weatherlink.com 1.10,2013-04-09 03:28:00,
2013-04-08 21:43:00,16.3,13.0,30.25,NE,55,15.0,-999.0,88,-99.99,,,0.00,0,weatherlink.com 1.10,2013-04-09 03:43:00,
2013-04-08 21:58:00,16.1,13.0,30.26,NNE,21,20.0,-999.0,88,-99.99,,,0.00,0,weatherlink.com 1.10,2013-04-09 03:58:00,
2013-04-08 22:13:00,16.0,13.0,30.28,North,5,16.0,-999.0,88,-99.99,,,0.00,0,weatherlink.com 1.10,2013-04-09 04:13:00,
2013-04-08 22:29:00,15.9,13.0,30.28,NNE,18,20.0,-999.0,88,-99.99,,,0.00,0,weatherlink.com 1.10,2013-04-09 04:29:00,
2013-04-08 22:44:00,15.7,13.0,30.29,NNE,26,25.0,-999.0,89,-99.99,,,0.00,0,weatherlink.com 1.10,2013-04-09 04:44:00,
2013-04-08 22:59:00,15.6,13.0,30.30,NNE,30,27.0,-999.0,89,-99.99,,,0.00,0,weatherlink.com 1.10,2013-04-09 04:59:00,
2013-04-08 23:29:00,15.4,13.0,30.32,NNE,30,23.0,-999.0,89,-99.99,,,0.00,0,weatherlink.com 1.10,2013-04-09 05:29:00,
2013-04-08 23:44:00,15.3,13.0,30.34,NE,35,25.0,-999.0,89,-99.99,,,0.00,0,weatherlink.com 1.10,2013-04-09 05:44:00,
2013-04-08 23:59:00,15.2,13.0,30.35,NNE,33,16.0,-999.0,89,-99.99,,,0.00,0,weatherlink.com 1.10,2013-04-09 05:59:00,